Regional Weather Roundup
Issued by NWS Northern Indiana

Home | Current Version | Previous Version | Graphics & Text | Print | Product List | Glossary On
Versions: 1 2 3 4 5 6 7 8 9 10 11 12 13 14 15 16 17 18 19 20 21 22 23 24 25 26 27 28 29 30 31 32 33 34 35 36 37 38 39 40 41 42 43 44 45 46 47 48 49 50
000
ASUS43 KIWX 200600
RWRIWX

KIWX WEATHER ROUNDUP
NATIONAL WEATHER SERVICE NORTHERN INDIANA
200 AM EDT THU JUL 20 2017

NOTE: "FAIR" INDICATES FEW OR NO CLOUDS BELOW 12,000 FEET WITH NO
SIGNIFICANT WEATHER AND/OR OBSTRUCTIONS TO VISIBILITY.

* THESE STATIONS ARE NOT UNDER NWS QUALITY CONTROL. THEY ALSO MAY NOT
  REPORT WEATHER SUCH AS PRECIPITATION OR FOG.

INZ001>027-200700-
NORTHERN INDIANA

CITY           SKY/WX    TMP DP  RH WIND       PRES   REMARKS
MICHIGAN CITY* CLOUDY    68  68 100 S5        30.03F
KNOX*          CLOUDY    68  64  88 SE3       30.08F
SOUTH BEND     RAIN      71  69  93 SW10      30.04F
6HR MIN TEMP:  71; 6HR MAX TEMP:  82; 6HR PCP:  0.04;

MONTICELLO*    RAIN      70  68  95 NE7       30.09F
6HR MIN TEMP:  70; 6HR MAX TEMP:  85; 6HR PCP:  0.05;

FORT WAYNE     CLOUDY    77  72  84 SW6       30.08F
6HR MIN TEMP:  75; 6HR MAX TEMP:  86;

PERU/GRISSOM   RAIN      72  72 100 N18G26    30.11R FOG

$$
INZ028>050-200700-
CENTRAL INDIANA

CITY           SKY/WX    TMP DP  RH WIND       PRES   REMARKS
LAFAYETTE      CLOUDY    70  68  93 NE5       30.10F
6HR MIN TEMP:  69; 6HR MAX TEMP:  84; 6HR PCP:  0.07;

KOKOMO*        CLOUDY    76  70  82 N20G37    30.13R
6HR MIN TEMP:  76; 6HR MAX TEMP:  84;

MUNCIE*        CLOUDY    77  72  84 W5        30.11F
6HR MIN TEMP:  76; 6HR MAX TEMP:  86;

INDIANAPOLIS   CLEAR     76  72  87 SW3       30.10F
6HR MIN TEMP:  76; 6HR MAX TEMP:  84;


$$
MIZ043>046-050>051-056>058-064>065-071>073-077>080-200700-
SOUTHWEST LOWER MICHIGAN

CITY           SKY/WX    TMP DP  RH WIND       PRES   REMARKS
BATTLE CREEK   CLOUDY    75  72  90 S12       30.00F
6HR MIN TEMP:  73; 6HR MAX TEMP:  84;

BENTON HARBOR  CLOUDY    73  66  78 W6        30.00F
6HR MIN TEMP:  71; 6HR MAX TEMP:  78;

COLDWATER*     CLOUDY    74  74 100 S3        30.02F
6HR MIN TEMP:  73; 6HR MAX TEMP:  82;

HILLSDALE*     MOCLDY    73  70  88 S5        30.04F
HOLLAND        CLOUDY    73  64  73 S13G31    29.90F
6HR MIN TEMP:  68; 6HR MAX TEMP:  78;

GRAND RAPIDS   CLOUDY    73  69  87 SE8       29.96F
6HR MIN TEMP:  73; 6HR MAX TEMP:  84;

KALAMAZOO      CLOUDY    76  68  76 SW13      30.00F
6HR MIN TEMP:  73; 6HR MAX TEMP:  84;

STURGIS*       CLOUDY    73  72  95 MISG      30.02F
6HR MIN TEMP:  73; 6HR MAX TEMP:  85;

THREE RIVERS*  MOCLDY    74  72  93 SW10      30.03F
6HR MIN TEMP:  73; 6HR MAX TEMP:  84;


$$
OHZ001>008-015>018-024>025-200700-
NORTHWEST OHIO

CITY           SKY/WX    TMP DP  RH WIND       PRES   REMARKS
DEFIANCE       CLOUDY    74  70  87 SW5       30.05F
6HR MIN TEMP:  73; 6HR MAX TEMP:  86;

FINDLAY        MOCLDY    75  69  81 SW5       30.06F
6HR MIN TEMP:  74; 6HR MAX TEMP:  85;

TOLEDO EXPRESS CLOUDY    73  72  96 S6        30.03F
6HR MIN TEMP:  72; 6HR MAX TEMP:  78; 6HR PCP:  0.01;

TOLEDO METCALF PTCLDY    74  72  93 S5        30.04F
6HR MIN TEMP:  74; 6HR MAX TEMP:  78;

LIMA           CLOUDY    75  71  87 SW7       30.09S
6HR MIN TEMP:  73; 6HR MAX TEMP:  84;


$$
AND FOR LAKE MICHIGAN COASTAL AND OPEN LAKE BUOY OBSERVATIONS

STATION/POSITION TEMP    WIND        PRES    VSBY  WAVE
                 AIR SEA DIR/SP/G                  HT/PER
                 (F)     (DEG/KT/KT) (MB)    (MI)  (FT/S)
CALUMET HARBOR    71     160/  4/  5 1016.8F
MICHIGAN CITY     70     170/  6/  6   N/A
BURNS HARBOR      72     180/  2/  4 1018.3F
SAINT JOSEPH      74     220/ 11/ 16 1017.6
SOUTH LAKE BUOY   70 70  280/ 21/ 25 1016.3          1/ 3
4 MI NW BRIDGMAN  73 75  270/ 16/ 21 1015.9F         1/ 2
MICHIGAN CITY     72 74  200/  8/ 10   N/A           1/ 3

$$
&&




USA.gov is the U.S. government's official web portal to all federal, state and local government web resources and services.